,,Stat6,,Stat2,,Stat8,,Stat9,,Stat10,,Wind1,,Wind1,
time,status,PA1M_AVG,status,PR1M_SUM,status,RH1M_AVG,status,SR1M_AVG,status,TA1M_AVG,status,W1dAve1m,status,W1sAve1m,
2006-11-12, 07:00:01,VALID,917.14,VALID,0,VALID,100,VALID,0.0679233,VALID,19.1149,VALID,315,VALID,1.0169,
2006-11-12, 07:01:00,VALID,917.118,VALID,0,VALID,100,VALID,0.0509425,VALID,19.1409,VALID,307,VALID,1.02307,
2006-11-12, 07:02:00,VALID,917.104,VALID,0,VALID,100,VALID,0.0679233,VALID,19.1531,VALID,305,VALID,0.993555,
2006-11-12, 07:03:00,VALID,917.1,VALID,0,VALID,100,VALID,0.0849042,VALID,19.1501,VALID,303,VALID,1.06214,
2006-11-12, 07:04:00,VALID,917.089,VALID,0,VALID,100,VALID,0.0169808,VALID,19.163,VALID,286,VALID,1.10063,
2006-11-12, 07:05:00,VALID,917.09,VALID,0,VALID,100,VALID,0.0679233,VALID,19.1633,VALID,283,VALID,1.03658,
2006-11-12, 07:06:00,VALID,917.083,VALID,0,VALID,100,VALID,0.0339617,VALID,19.1663,VALID,287,VALID,1.12609,
2006-11-12, 07:07:00,VALID,917.096,VALID,0,VALID,100,VALID,-0.0509425,VALID,19.1739,VALID,281,VALID,1.24609,
2006-11-12, 07:08:00,VALID,917.087,VALID,0,VALID,100,VALID,-0.0339617,VALID,19.1873,VALID,282,VALID,1.07067,
2006-11-12, 07:09:00,VALID,917.094,VALID,0,VALID,100,VALID,-0.0509425,VALID,19.1943,VALID,281,VALID,0.72603,
2006-11-12, 07:10:00,VALID,917.104,VALID,0,VALID,100,VALID,-0.0169808,VALID,19.1901,VALID,282,VALID,0.657203,
2006-11-12, 07:11:00,VALID,917.094,VALID,0,VALID,100,VALID,-0.0339617,VALID,19.2097,VALID,283,VALID,0.732887,
2006-11-12, 07:12:00,VALID,917.106,VALID,0,VALID,100,VALID,-0.0849042,VALID,19.2164,VALID,268,VALID,0.66915,
2006-11-12, 07:13:00,VALID,917.107,VALID,0,VALID,100,VALID,-0.0509425,VALID,19.2362,VALID,274,VALID,0.531994,
2006-11-12, 07:14:00,VALID,917.115,VALID,0,VALID,100,VALID,-0.0509425,VALID,19.2325,VALID,280,VALID,0.744549,
2006-11-12, 07:15:00,VALID,917.116,VALID,0,VALID,100,VALID,-0.0679233,VALID,19.1997,VALID,298,VALID,1.11491,
2006-11-12, 07:16:00,VALID,917.128,VALID,0,VALID,100,VALID,-0.0339617,VALID,19.2064,VALID,295,VALID,0.978924,
2006-11-12, 07:17:00,VALID,917.138,VALID,0,VALID,100,VALID,0,VALID,19.2099,VALID,297,VALID,0.863459,
2006-11-12, 07:18:00,VALID,917.131,VALID,0,VALID,100,VALID,-0.0169808,VALID,19.2097,VALID,300,VALID,0.857067,
2006-11-12, 07:19:00,VALID,917.131,VALID,0,VALID,100,VALID,0,VALID,19.2226,VALID,302,VALID,0.83559,
2006-11-12, 07:20:00,VALID,917.122,VALID,0,VALID,100,VALID,-0.0509425,VALID,19.2355,VALID,302,VALID,0.664595,
2006-11-12, 07:21:00,VALID,917.118,VALID,0,VALID,100,VALID,-0.0169808,VALID,19.2382,VALID,302,VALID,0.600229,
2006-11-12, 07:22:00,VALID,917.114,VALID,0,VALID,100,VALID,0.0339617,VALID,19.2407,VALID,302,VALID,0.690705,
2006-11-12, 07:23:00,VALID,917.099,VALID,0,VALID,100,VALID,0,VALID,19.2703,VALID,302,VALID,0.756214,
2006-11-12, 07:24:00,VALID,917.099,VALID,0,VALID,100,VALID,0.0169808,VALID,19.2799,VALID,302,VALID,0.642578,
2006-11-12, 07:25:00,VALID,917.095,VALID,0,VALID,100,VALID,0.0169808,VALID,19.277,VALID,301,VALID,0.598895,
2006-11-12, 07:26:00,VALID,917.098,VALID,0,VALID,100,VALID,0,VALID,19.267,VALID,297,VALID,0.566034,
2006-11-12, 07:27:00,VALID,917.084,VALID,0,VALID,100,VALID,-0.0169808,VALID,19.2668,VALID,294,VALID,0.686773,
2006-11-12, 07:28:00,VALID,917.08,VALID,0,VALID,100,VALID,-0.0169808,VALID,19.2608,VALID,294,VALID,0.639323,
2006-11-12, 07:29:00,VALID,917.064,VALID,0,VALID,100,VALID,0,VALID,19.2571,VALID,294,VALID,0.619792,
2006-11-12, 07:30:00,VALID,917.052,VALID,0,VALID,100,VALID,0,VALID,19.2673,VALID,294,VALID,0.644622,
2006-11-12, 07:31:00,VALID,917.038,VALID,0,VALID,100,VALID,0,VALID,19.2611,VALID,294,VALID,0.590234,
2006-11-12, 07:32:00,VALID,917.027,VALID,0,VALID,100,VALID,0,VALID,19.2643,VALID,293,VALID,0.51527,
2006-11-12, 07:33:00,VALID,917.021,VALID,0,VALID,100,VALID,0,VALID,19.2603,VALID,284,VALID,0.414435,
2006-11-12, 07:34:00,VALID,917.014,VALID,0,VALID,100,VALID,0.0339617,VALID,19.2631,VALID,277,VALID,0.513263,
2006-11-12, 07:35:00,VALID,917.023,VALID,0,VALID,100,VALID,0.0169808,VALID,19.2728,VALID,267,VALID,0.520633,
2006-11-12, 07:36:00,VALID,917.013,VALID,0,VALID,100,VALID,0.0339617,VALID,19.2991,VALID,266,VALID,0.328311,
2006-11-12, 07:37:00,VALID,917.023,VALID,0,VALID,100,VALID,0.0339617,VALID,19.3028,VALID,266,VALID,0.133594,
2006-11-12, 07:38:00,VALID,917.009,VALID,0,VALID,100,VALID,0,VALID,19.306,VALID,260,VALID,0.398251,
2006-11-12, 07:39:00,VALID,916.999,VALID,0,VALID,100,VALID,0.0339617,VALID,19.2891,VALID,255,VALID,0.151562,
2006-11-12, 07:40:00,VALID,916.992,VALID,0,VALID,100,VALID,0.0169808,VALID,19.2931,VALID,255,VALID,0.047247,
2006-11-12, 07:41:00,VALID,916.962,VALID,0,VALID,100,VALID,0,VALID,19.2963,VALID,255,VALID,0.297805,
2006-11-12, 07:42:00,VALID,916.954,VALID,0,VALID,100,VALID,0.0339617,VALID,19.2988,VALID,255,VALID,0.00902778,
2006-11-12, 07:43:00,VALID,916.931,VALID,0,VALID,100,VALID,-0.0169808,VALID,19.3125,VALID,255,VALID,0.0141715,
2006-11-12, 07:44:00,VALID,916.929,VALID,0,VALID,100,VALID,0.0169808,VALID,19.3254,VALID,255,VALID,0.13502,
2006-11-12, 07:45:00,VALID,916.94,VALID,0,VALID,100,VALID,0.0169808,VALID,19.3182,VALID,255,VALID,0.416211,
2006-11-12, 07:46:00,VALID,916.953,VALID,0,VALID,100,VALID,0.0509425,VALID,19.3219,VALID,238,VALID,0.547222,
2006-11-12, 07:47:00,VALID,916.946,VALID,0,VALID,100,VALID,0.0169808,VALID,19.2926,VALID,234,VALID,0.457698,
2006-11-12, 07:48:00,VALID,916.97,VALID,0,VALID,100,VALID,0,VALID,19.3058,VALID,234,VALID,0.35103,
2006-11-12, 07:49:00,VALID,916.987,VALID,0,VALID,100,VALID,0,VALID,19.3062,VALID,234,VALID,0.16712,
2006-11-12, 07:50:00,VALID,917.001,VALID,0,VALID,100,VALID,0,VALID,19.2961,VALID,234,VALID,0.154297,
2006-11-12, 07:51:00,VALID,916.996,VALID,0,VALID,100,VALID,0,VALID,19.2899,VALID,234,VALID,0.373512,
2006-11-12, 07:52:00,VALID,916.994,VALID,0,VALID,100,VALID,0.0169808,VALID,19.2832,VALID,234,VALID,0.0769531,
2006-11-12, 07:53:00,VALID,916.989,VALID,0,VALID,100,VALID,0.0169808,VALID,19.2963,VALID,234,VALID,0,
2006-11-12, 07:54:00,VALID,916.979,VALID,0,VALID,100,VALID,0,VALID,19.3095,VALID,234,VALID,0,
2006-11-12, 07:55:00,VALID,916.959,VALID,0,VALID,100,VALID,0,VALID,19.3125,VALID,234,VALID,0,
2006-11-12, 07:56:00,VALID,916.948,VALID,0,VALID,100,VALID,0.0169808,VALID,19.2991,VALID,234,VALID,0,
2006-11-12, 07:57:00,VALID,916.933,VALID,0,VALID,100,VALID,0,VALID,19.3053,VALID,234,VALID,0,
2006-11-12, 07:58:00,VALID,916.92,VALID,0,VALID,100,VALID,0.0169808,VALID,19.3125,VALID,234,VALID,0,
2006-11-12, 07:59:00,VALID,916.898,VALID,0,VALID,100,VALID,0.0339617,VALID,19.3157,VALID,234,VALID,0.0739462,
2006-11-12, 08:00:00,VALID,916.893,VALID,0,VALID,100,VALID,0.0169808,VALID,19.3025,VALID,189,VALID,0.284702,
2006-11-12, 08:01:00,VALID,916.876,VALID,0,VALID,100,VALID,0,VALID,19.2963,VALID,114,VALID,0.368229,
2006-11-12, 08:02:00,VALID,916.866,VALID,0,VALID,100,VALID,0.0509425,VALID,19.2894,VALID,98,VALID,0.424237,
2006-11-12, 08:03:00,VALID,916.851,VALID,0,VALID,100,VALID,0.0169808,VALID,19.2862,VALID,84,VALID,0.342262,
2006-11-12, 08:04:00,VALID,916.847,VALID,0,VALID,100,VALID,0,VALID,19.2695,VALID,84,VALID,0.365385,
2006-11-12, 08:05:00,VALID,916.842,VALID,0,VALID,100,VALID,0,VALID,19.2735,VALID,83,VALID,0.402798,
2006-11-12, 08:06:00,VALID,916.831,VALID,0,VALID,100,VALID,-0.0169808,VALID,19.2643,VALID,95,VALID,0.381944,
2006-11-12, 08:07:00,VALID,916.815,VALID,0,VALID,100,VALID,-0.0849042,VALID,19.2491,VALID,108,VALID,0.315168,
2006-11-12, 08:08:00,VALID,916.816,VALID,0,VALID,100,VALID,-0.101885,VALID,19.239,VALID,107,VALID,0.129439,
2006-11-12, 08:09:00,VALID,916.815,VALID,0,VALID,100,VALID,-0.0849042,VALID,19.236,VALID,107,VALID,0.1875,
2006-11-12, 08:10:00,VALID,916.809,VALID,0,VALID,100,VALID,-0.0679233,VALID,19.239,VALID,107,VALID,0.203506,
2006-11-12, 08:11:00,VALID,916.821,VALID,0,VALID,100,VALID,-0.0509425,VALID,19.2332,VALID,107,VALID,0.247275,
2006-11-12, 08:12:00,VALID,916.813,VALID,0,VALID,100,VALID,-0.0679233,VALID,19.2293,VALID,93,VALID,0.523801,
2006-11-12, 08:13:00,VALID,916.818,VALID,0,VALID,100,VALID,-0.0849042,VALID,19.2268,VALID,78,VALID,0.592748,
2006-11-12, 08:14:00,VALID,916.823,VALID,0,VALID,100,VALID,-0.0679233,VALID,19.2067,VALID,70,VALID,0.913881,
2006-11-12, 08:15:00,VALID,916.838,VALID,0,VALID,100,VALID,-0.0679233,VALID,19.2012,VALID,71,VALID,1.12264,
2006-11-12, 08:16:00,VALID,916.848,VALID,0,VALID,100,VALID,-0.0849042,VALID,19.1811,VALID,71,VALID,0.945313,
2006-11-12, 08:17:00,VALID,916.852,VALID,0,VALID,100,VALID,-0.0509425,VALID,19.1709,VALID,70,VALID,0.926711,
2006-11-12, 08:18:00,VALID,916.87,VALID,0,VALID,100,VALID,-0.0849042,VALID,19.1918,VALID,62,VALID,0.913132,
2006-11-12, 08:19:00,VALID,916.861,VALID,0,VALID,100,VALID,-0.0849042,VALID,19.1843,VALID,60,VALID,0.359549,
2006-11-12, 08:20:00,VALID,916.85,VALID,0,VALID,100,VALID,-0.0679233,VALID,19.1776,VALID,60,VALID,0.293241,
2006-11-12, 08:21:00,VALID,916.856,VALID,0,VALID,100,VALID,-0.0849042,VALID,19.1816,VALID,59,VALID,0.581659,
2006-11-12, 08:22:00,VALID,916.842,VALID,0,VALID,100,VALID,-0.0849042,VALID,19.1719,VALID,46,VALID,0.743389,
2006-11-12, 08:23:00,VALID,916.825,VALID,0,VALID,100,VALID,-0.0849042,VALID,19.1657,VALID,39,VALID,0.56064,
2006-11-12, 08:24:00,VALID,916.823,VALID,0,VALID,100,VALID,-0.0849042,VALID,19.1558,VALID,40,VALID,0.697027,
2006-11-12, 08:25:00,VALID,916.817,VALID,0,VALID,100,VALID,-0.0849042,VALID,19.1558,VALID,39,VALID,0.72619,
2006-11-12, 08:26:00,VALID,916.815,VALID,0,VALID,100,VALID,-0.0679233,VALID,19.1297,VALID,38,VALID,0.452398,
2006-11-12, 08:27:00,VALID,916.833,VALID,0,VALID,100,VALID,-0.0849042,VALID,19.1233,VALID,23,VALID,0.799924,
2006-11-12, 08:28:00,VALID,916.838,VALID,0,VALID,100,VALID,-0.101885,VALID,19.1002,VALID,21,VALID,0.721839,
2006-11-12, 08:29:00,VALID,916.863,VALID,0,VALID,100,VALID,-0.0509425,VALID,19.1136,VALID,32,VALID,0.594105,
2006-11-12, 08:30:00,VALID,916.879,VALID,0,VALID,100,VALID,-0.0849042,VALID,19.1108,VALID,32,VALID,0.668229,
2006-11-12, 08:31:00,VALID,916.893,VALID,0,VALID,100,VALID,-0.101885,VALID,19.0944,VALID,31,VALID,0.599657,
2006-11-12, 08:32:00,VALID,916.902,VALID,0,VALID,100,VALID,-0.101885,VALID,19.0882,VALID,31,VALID,0.643532,
2006-11-12, 08:33:00,VALID,916.91,VALID,0,VALID,100,VALID,-0.101885,VALID,19.0845,VALID,21,VALID,0.873728,
2006-11-12, 08:34:00,VALID,916.919,VALID,0,VALID,100,VALID,-0.101885,VALID,19.091,VALID,16,VALID,0.456944,
2006-11-12, 08:35:00,VALID,916.931,VALID,0,VALID,100,VALID,-0.135847,VALID,19.0848,VALID,16,VALID,0.377486,
2006-11-12, 08:36:00,VALID,916.948,VALID,0,VALID,100,VALID,-0.101885,VALID,19.0912,VALID,15,VALID,0.412153,
2006-11-12, 08:37:00,VALID,916.939,VALID,0,VALID,100,VALID,0,VALID,19.0863,VALID,15,VALID,0.274182,
2006-11-12, 08:38:00,VALID,916.939,VALID,0,VALID,100,VALID,0,VALID,19.0833,VALID,348,VALID,0.367759,
2006-11-12, 08:39:00,VALID,916.937,VALID,0,VALID,100,VALID,0.0169808,VALID,19.0836,VALID,345,VALID,0.444568,
2006-11-12, 08:40:00,VALID,916.92,VALID,0,VALID,100,VALID,0.0169808,VALID,19.0667,VALID,346,VALID,0.628997,
2006-11-12, 08:41:00,VALID,916.92,VALID,0,VALID,100,VALID,0,VALID,19.0568,VALID,353,VALID,0.723586,
2006-11-12, 08:42:00,VALID,916.9,VALID,0,VALID,100,VALID,0.0169808,VALID,19.0637,VALID,356,VALID,0.710193,
2006-11-12, 08:43:00,VALID,916.906,VALID,0,VALID,100,VALID,0.0169808,VALID,19.0674,VALID,359,VALID,0.919643,
2006-11-12, 08:44:00,VALID,916.901,VALID,0,VALID,100,VALID,0.0339617,VALID,19.0607,VALID,358,VALID,0.78561,
2006-11-12, 08:45:00,VALID,916.919,VALID,0,VALID,100,VALID,0.0509425,VALID,19.0605,VALID,8,VALID,0.891741,
2006-11-12, 08:46:00,VALID,916.923,VALID,0,VALID,100,VALID,0.0339617,VALID,19.0575,VALID,31,VALID,1.01829,
2006-11-12, 08:47:00,VALID,916.929,VALID,0,VALID,100,VALID,0,VALID,19.0473,VALID,36,VALID,1.19479,
2006-11-12, 08:48:00,VALID,916.925,VALID,0,VALID,100,VALID,0,VALID,19.0511,VALID,25,VALID,1.28622,
2006-11-12, 08:49:00,VALID,916.931,VALID,0,VALID,100,VALID,-0.0169808,VALID,19.0552,VALID,26,VALID,1.13579,
2006-11-12, 08:50:00,VALID,916.931,VALID,0,VALID,100,VALID,0,VALID,19.0416,VALID,23,VALID,0.804861,
2006-11-12, 08:51:00,VALID,916.923,VALID,0,VALID,100,VALID,0,VALID,19.0545,VALID,16,VALID,0.892401,
2006-11-12, 08:52:00,VALID,916.927,VALID,0,VALID,100,VALID,0,VALID,19.0803,VALID,20,VALID,0.702592,
2006-11-12, 08:53:00,VALID,916.926,VALID,0,VALID,100,VALID,0,VALID,19.1029,VALID,23,VALID,0.664789,
2006-11-12, 08:54:00,VALID,916.936,VALID,0,VALID,100,VALID,0,VALID,19.1188,VALID,20,VALID,0.796875,
2006-11-12, 08:55:00,VALID,916.945,VALID,0,VALID,100,VALID,0,VALID,19.1483,VALID,10,VALID,0.678385,
2006-11-12, 08:56:00,VALID,916.973,VALID,0,VALID,100,VALID,0.0169808,VALID,19.1575,VALID,14,VALID,0.453125,
2006-11-12, 08:57:00,VALID,917.007,VALID,0,VALID,100,VALID,0,VALID,19.1578,VALID,11,VALID,0.6746,
2006-11-12, 08:58:00,VALID,917.008,VALID,0,VALID,100,VALID,0,VALID,19.1707,VALID,27,VALID,0.595618,
2006-11-12, 08:59:00,VALID,917.032,VALID,0,VALID,100,VALID,0.0169808,VALID,19.1834,VALID,21,VALID,0.848772,
2006-11-12, 09:00:00,VALID,917.043,VALID,0,VALID,100,VALID,0,VALID,19.1797,VALID,16,VALID,0.915365,
2006-11-12, 09:01:00,VALID,917.052,VALID,0,VALID,100,VALID,0.0339617,VALID,19.1834,VALID,8,VALID,1.03977,
2006-11-12, 09:02:00,VALID,917.057,VALID,0,VALID,100,VALID,0.0169808,VALID,19.1933,VALID,33,VALID,1.49423,
2006-11-12, 09:03:00,VALID,917.05,VALID,0,VALID,100,VALID,0,VALID,19.1965,VALID,17,VALID,1.37099,
2006-11-12, 09:04:00,VALID,917.07,VALID,0,VALID,100,VALID,0.0339617,VALID,19.203,VALID,23,VALID,1.29332,
2006-11-12, 09:05:00,VALID,917.059,VALID,0,VALID,100,VALID,0,VALID,19.2226,VALID,28,VALID,1.15554,
2006-11-12, 09:06:00,VALID,917.039,VALID,0,VALID,100,VALID,0,VALID,19.2193,VALID,26,VALID,0.704545,
2006-11-12, 09:07:00,VALID,917.046,VALID,0,VALID,100,VALID,-0.0679233,VALID,19.2203,VALID,21,VALID,0.729102,
2006-11-12, 09:08:00,VALID,917.03,VALID,0,VALID,100,VALID,-0.0849042,VALID,19.2101,VALID,356,VALID,0.751215,
2006-11-12, 09:09:00,VALID,917.007,VALID,0,VALID,100,VALID,-0.0849042,VALID,19.2201,VALID,360,VALID,0.325284,
2006-11-12, 09:10:00,VALID,916.997,VALID,0,VALID,100,VALID,-0.0849042,VALID,19.2268,VALID,7,VALID,0.354167,
2006-11-12, 09:11:00,VALID,916.985,VALID,0,VALID,100,VALID,-0.101885,VALID,19.2307,VALID,15,VALID,0.585938,
2006-11-12, 09:12:00,VALID,916.992,VALID,0,VALID,100,VALID,-0.101885,VALID,19.2206,VALID,12,VALID,0.45434,
2006-11-12, 09:13:00,VALID,916.996,VALID,0,VALID,100,VALID,-0.101885,VALID,19.2106,VALID,36,VALID,0.775391,
2006-11-12, 09:14:00,VALID,916.994,VALID,0,VALID,100,VALID,-0.101885,VALID,19.2111,VALID,35,VALID,1.13969,
2006-11-12, 09:15:00,VALID,917.002,VALID,0,VALID,100,VALID,-0.101885,VALID,19.2143,VALID,35,VALID,0.813021,
2006-11-12, 09:16:00,VALID,917.003,VALID,0,VALID,100,VALID,-0.101885,VALID,19.2047,VALID,32,VALID,0.607713,
2006-11-12, 09:17:00,VALID,917,VALID,0,VALID,100,VALID,-0.101885,VALID,19.1754,VALID,22,VALID,1.20449,
2006-11-12, 09:18:00,VALID,917,VALID,0,VALID,100,VALID,-0.101885,VALID,19.1751,VALID,23,VALID,1.06803,
2006-11-12, 09:19:00,VALID,917.018,VALID,0,VALID,100,VALID,-0.101885,VALID,19.1687,VALID,23,VALID,1.00893,
2006-11-12, 09:20:00,VALID,917.013,VALID,0,VALID,100,VALID,-0.0679233,VALID,19.1592,VALID,27,VALID,1.12188,
2006-11-12, 09:21:00,VALID,917.024,VALID,0,VALID,100,VALID,-0.0849042,VALID,19.1525,VALID,24,VALID,0.468928,
2006-11-12, 09:22:00,VALID,917.024,VALID,0,VALID,100,VALID,-0.0169808,VALID,19.1419,VALID,31,VALID,0.71513,
2006-11-12, 09:23:00,VALID,917.052,VALID,0,VALID,100,VALID,0,VALID,19.1486,VALID,39,VALID,0.866461,
2006-11-12, 09:24:00,VALID,917.053,VALID,0,VALID,100,VALID,0,VALID,19.1089,VALID,38,VALID,0.693892,
2006-11-12, 09:25:00,VALID,917.069,VALID,0,VALID,100,VALID,0.0169808,VALID,19.1191,VALID,37,VALID,0.449491,
2006-11-12, 09:26:00,VALID,917.071,VALID,0,VALID,100,VALID,0,VALID,19.1163,VALID,37,VALID,0.488991,
2006-11-12, 09:27:00,VALID,917.08,VALID,0,VALID,100,VALID,-0.0169808,VALID,19.093,VALID,37,VALID,0.37221,
2006-11-12, 09:28:00,VALID,917.078,VALID,0,VALID,100,VALID,0.0169808,VALID,19.0803,VALID,38,VALID,0.467076,
2006-11-12, 09:29:00,VALID,917.084,VALID,0,VALID,100,VALID,0.0169808,VALID,19.0739,VALID,42,VALID,0.66915,
2006-11-12, 09:30:00,VALID,917.07,VALID,0,VALID,100,VALID,0,VALID,19.0773,VALID,42,VALID,0.554324,
2006-11-12, 09:31:00,VALID,917.08,VALID,0,VALID,100,VALID,0,VALID,19.0677,VALID,42,VALID,0.299964,
2006-11-12, 09:32:00,VALID,917.094,VALID,0,VALID,100,VALID,0,VALID,19.0739,VALID,42,VALID,0.475074,
2006-11-12, 09:33:00,VALID,917.098,VALID,0,VALID,100,VALID,0.0169808,VALID,19.0603,VALID,42,VALID,0.413707,
2006-11-12, 09:34:00,VALID,917.108,VALID,0,VALID,100,VALID,0,VALID,19.0644,VALID,42,VALID,0.138148,
2006-11-12, 09:35:00,VALID,917.1,VALID,0,VALID,100,VALID,0.0339617,VALID,19.0414,VALID,42,VALID,0.318892,
2006-11-12, 09:36:00,VALID,917.103,VALID,0,VALID,100,VALID,0,VALID,19.0419,VALID,42,VALID,0.436133,
2006-11-12, 09:37:00,VALID,917.103,VALID,0,VALID,100,VALID,0,VALID,19.0352,VALID,42,VALID,0.354688,
2006-11-12, 09:38:00,VALID,917.092,VALID,0,VALID,100,VALID,0,VALID,19.0287,VALID,42,VALID,0.301042,
2006-11-12, 09:39:00,VALID,917.091,VALID,0,VALID,100,VALID,0.0509425,VALID,19.0483,VALID,42,VALID,0.0128348,
2006-11-12, 09:40:00,VALID,917.079,VALID,0,VALID,100,VALID,0.0509425,VALID,19.0354,VALID,42,VALID,0,
2006-11-12, 09:41:00,VALID,917.068,VALID,0,VALID,100,VALID,0,VALID,19.019,VALID,42,VALID,0,
2006-11-12, 09:42:00,VALID,917.08,VALID,0,VALID,100,VALID,0.0339617,VALID,19.0061,VALID,42,VALID,0,
2006-11-12, 09:43:00,VALID,917.08,VALID,0,VALID,100,VALID,0.0169808,VALID,18.9962,VALID,42,VALID,0,
2006-11-12, 09:44:00,VALID,917.099,VALID,0,VALID,100,VALID,0,VALID,19.0227,VALID,42,VALID,0,
2006-11-12, 09:45:00,VALID,917.107,VALID,0,VALID,100,VALID,0.0169808,VALID,19.0319,VALID,327,VALID,0.662972,
2006-11-12, 09:46:00,VALID,917.131,VALID,0,VALID,100,VALID,-0.0169808,VALID,18.9741,VALID,276,VALID,1.12827,
2006-11-12, 09:47:00,VALID,917.146,VALID,0,VALID,100,VALID,0.0169808,VALID,18.955,VALID,274,VALID,0.376334,
2006-11-12, 09:48:00,VALID,917.163,VALID,0,VALID,100,VALID,0.0339617,VALID,18.9579,VALID,274,VALID,0.682165,
2006-11-12, 09:49:00,VALID,917.18,VALID,0,VALID,100,VALID,0,VALID,18.9743,VALID,274,VALID,0.703497,
2006-11-12, 09:50:00,VALID,917.188,VALID,0,VALID,100,VALID,0.0169808,VALID,18.948,VALID,287,VALID,0.793857,
2006-11-12, 09:51:00,VALID,917.208,VALID,0,VALID,100,VALID,-0.0169808,VALID,18.948,VALID,292,VALID,0.907522,
2006-11-12, 09:52:00,VALID,917.212,VALID,0,VALID,100,VALID,-0.0849042,VALID,18.943,VALID,285,VALID,0.91875,
2006-11-12, 09:53:00,VALID,917.226,VALID,0,VALID,100,VALID,-0.0849042,VALID,18.9654,VALID,286,VALID,0.960751,
2006-11-12, 09:54:00,VALID,917.234,VALID,0,VALID,100,VALID,-0.0849042,VALID,18.9882,VALID,285,VALID,1.00062,
2006-11-12, 09:55:00,VALID,917.237,VALID,0,VALID,100,VALID,-0.0849042,VALID,18.9815,VALID,292,VALID,0.851372,
2006-11-12, 09:56:00,VALID,917.254,VALID,0,VALID,100,VALID,-0.101885,VALID,18.9916,VALID,293,VALID,0.846875,
2006-11-12, 09:57:00,VALID,917.269,VALID,0,VALID,100,VALID,-0.0339617,VALID,18.9879,VALID,293,VALID,0.806323,
2006-11-12, 09:58:00,VALID,917.285,VALID,0,VALID,100,VALID,-0.101885,VALID,18.9949,VALID,294,VALID,0.749047,
2006-11-12, 09:59:00,VALID,917.289,VALID,0,VALID,100,VALID,-0.0849042,VALID,18.985,VALID,301,VALID,0.739281,
2006-11-12, 10:00:00,VALID,917.303,VALID,0,VALID,100,VALID,-0.0849042,VALID,18.985,VALID,301,VALID,0.793445,
2006-11-12, 10:01:00,VALID,917.314,VALID,0,VALID,100,VALID,-0.101885,VALID,19.0009,VALID,301,VALID,1.02361,
2006-11-12, 10:02:00,VALID,917.32,VALID,0,VALID,100,VALID,-0.0849042,VALID,19.0205,VALID,303,VALID,1.11551,
2006-11-12, 10:03:00,VALID,917.334,VALID,0,VALID,100,VALID,-0.101885,VALID,19.0567,VALID,307,VALID,1.25818,
2006-11-12, 10:04:00,VALID,917.339,VALID,0,VALID,100,VALID,-0.101885,VALID,19.0691,VALID,299,VALID,1.06072,
2006-11-12, 10:05:00,VALID,917.335,VALID,0,VALID,100,VALID,-0.0849042,VALID,19.0786,VALID,289,VALID,0.94308,
2006-11-12, 10:06:00,VALID,917.35,VALID,0,VALID,100,VALID,-0.0679233,VALID,19.0952,VALID,307,VALID,0.816315,
2006-11-12, 10:07:00,VALID,917.346,VALID,0,VALID,100,VALID,-0.101885,VALID,19.0917,VALID,312,VALID,0.835565,
2006-11-12, 10:08:00,VALID,917.36,VALID,0,VALID,100,VALID,-0.0509425,VALID,19.1019,VALID,312,VALID,0.733803,
2006-11-12, 10:09:00,VALID,917.363,VALID,0,VALID,100,VALID,-0.0849042,VALID,19.0952,VALID,310,VALID,0.770633,
2006-11-12, 10:10:00,VALID,917.378,VALID,0,VALID,100,VALID,-0.0849042,VALID,19.0818,VALID,311,VALID,0.58125,
2006-11-12, 10:11:00,VALID,917.379,VALID,0,VALID,100,VALID,-0.0679233,VALID,19.0949,VALID,315,VALID,0.320884,
2006-11-12, 10:12:00,VALID,917.38,VALID,0,VALID,100,VALID,-0.0339617,VALID,19.0818,VALID,316,VALID,0.442894,
2006-11-12, 10:13:00,VALID,917.391,VALID,0,VALID,100,VALID,-0.0169808,VALID,19.0785,VALID,339,VALID,0.64117,
2006-11-12, 10:14:00,VALID,917.383,VALID,0,VALID,100,VALID,0.0169808,VALID,19.0887,VALID,339,VALID,0.268043,
2006-11-12, 10:22:00,VALID,917.396,VALID,0,VALID,100,VALID,1.90185,VALID,19.0153,VALID,315,VALID,0.38557,
2006-11-12, 10:23:00,VALID,917.402,VALID,0,VALID,100,VALID,2.15657,VALID,19.0022,VALID,315,VALID,0.159339,
2006-11-12, 10:24:00,VALID,917.41,VALID,0,VALID,100,VALID,2.3943,VALID,18.9955,VALID,315,VALID,0.237674,
2006-11-12, 10:25:00,VALID,917.404,VALID,0,VALID,100,VALID,2.32637,VALID,18.9858,VALID,315,VALID,0.000186012,
2006-11-12, 10:26:00,VALID,917.399,VALID,0,VALID,100,VALID,2.19053,VALID,18.9699,VALID,315,VALID,0.00111607,
2006-11-12, 10:27:00,VALID,917.394,VALID,0,VALID,100,VALID,2.07166,VALID,18.9473,VALID,315,VALID,0,
2006-11-12, 10:28:00,VALID,917.39,VALID,0,VALID,100,VALID,1.98676,VALID,18.9339,VALID,315,VALID,0.118823,
2006-11-12, 10:29:00,VALID,917.411,VALID,0,VALID,100,VALID,2.1226,VALID,18.9238,VALID,317,VALID,0.323765,
2006-11-12, 10:30:00,VALID,917.411,VALID,0,VALID,100,VALID,2.3943,VALID,18.9183,VALID,324,VALID,0.494271,
2006-11-12, 10:31:00,VALID,917.427,VALID,0,VALID,100,VALID,2.75089,VALID,18.9054,VALID,325,VALID,0.531944,
2006-11-12, 10:32:00,VALID,917.439,VALID,0,VALID,100,VALID,3.2773,VALID,18.8756,VALID,326,VALID,0.467076,
2006-11-12, 10:33:00,VALID,917.452,VALID,0,VALID,100,VALID,4.00748,VALID,18.8629,VALID,330,VALID,0.568359,
2006-11-12, 10:34:00,VALID,917.463,VALID,0,VALID,100,VALID,4.83954,VALID,18.8567,VALID,330,VALID,0.479226,
2006-11-12, 10:35:00,VALID,917.489,VALID,0,VALID,100,VALID,5.92631,VALID,18.8436,VALID,330,VALID,0.256098,
2006-11-12, 10:36:00,VALID,917.505,VALID,0,VALID,100,VALID,7.21685,VALID,18.8369,VALID,330,VALID,0.337798,
2006-11-12, 10:37:00,VALID,917.509,VALID,0,VALID,100,VALID,8.35457,VALID,18.816,VALID,330,VALID,0.381177,
2006-11-12, 10:38:00,VALID,917.507,VALID,0,VALID,100,VALID,9.3055,VALID,18.7968,VALID,330,VALID,0.0649182,
2006-11-12, 10:39:00,VALID,917.522,VALID,0,VALID,100,VALID,10.3923,VALID,18.7738,VALID,330,VALID,0.365359,
2006-11-12, 10:40:00,VALID,917.523,VALID,0,VALID,100,VALID,11.5979,VALID,18.7507,VALID,330,VALID,0.224219,
2006-11-12, 10:41:00,VALID,917.529,VALID,0,VALID,100,VALID,12.5149,VALID,18.7514,VALID,330,VALID,0.352121,
2006-11-12, 10:42:00,VALID,917.549,VALID,0,VALID,100,VALID,13.6526,VALID,18.7581,VALID,330,VALID,0.180831,
2006-11-12, 10:43:00,VALID,917.57,VALID,0,VALID,100,VALID,15.3507,VALID,18.7519,VALID,330,VALID,0.15952,
2006-11-12, 10:44:00,VALID,917.583,VALID,0,VALID,100,VALID,16.794,VALID,18.7646,VALID,330,VALID,0,
2006-11-12, 10:45:00,VALID,917.596,VALID,0,VALID,100,VALID,18.7468,VALID,18.7745,VALID,330,VALID,0,
2006-11-12, 10:46:00,VALID,917.606,VALID,0,VALID,100,VALID,20.9713,VALID,18.7842,VALID,330,VALID,0,
2006-11-12, 10:47:00,VALID,917.609,VALID,0,VALID,100,VALID,22.5336,VALID,18.7973,VALID,330,VALID,0,
2006-11-12, 10:48:00,VALID,917.628,VALID,0,VALID,100,VALID,23.875,VALID,18.8065,VALID,330,VALID,0,
2006-11-12, 10:49:00,VALID,917.638,VALID,0,VALID,100,VALID,25.2165,VALID,18.8261,VALID,330,VALID,0.0999645,